Regional Weather Roundup
Issued by NWS

Home | Current Version | Previous Version | Graphics & Text | Print | Product List | Glossary On
Versions: 1 2 3 4 5 6 7 8 9 10 11 12 13 14 15 16 17 18 19 20 21 22 23 24 25 26 27 28 29 30 31 32 33 34 35 36 37 38 39 40 41 42 43 44 45 46 47 48 49 50
715
ASUS43 KLSX 131207
RWRMO

WEATHER SUMMARY FOR MISSOURI
NATIONAL WEATHER SERVICE SPRINGFIELD MO
600 AM CST SAT FEB 13 2016

NOTE: "FAIR" INDICATES FEW OR NO CLOUDS BELOW 12,000 FEET WITH NO
       SIGNIFICANT WEATHER AND/OR OBSTRUCTIONS TO VISIBILITY.
       CURRENT SKY AND/OR WEATHER CONDITIONS ARE NOT AVAILABLE FOR
       CHILLICOTHE AND FARMINGTON.

MOZ001>031-035>038-043-044-053-054-131300-
...NORTHERN AND WESTERN MISSOURI...

CITY           SKY/WX    TMP DP  RH WIND       PRES   REMARKS
KANSAS CTY INT CLOUDY    16   4  59 E9        30.60R WCI   4
6HR MIN TEMP:  16; 6HR MAX TEMP:  19;

KANSAS C DTWN  CLOUDY    18   3  52 NE8       30.63R WCI   8
6HR MIN TEMP:  18; 6HR MAX TEMP:  21;

LEE`S SUMMIT   CLOUDY    16   1  51 NE10      30.59S WCI   4
6HR MIN TEMP:  16; 6HR MAX TEMP:  19;

ST JOSEPH      CLOUDY    15   2  56 NE6       30.64S WCI   6
6HR MIN TEMP:  15; 6HR MAX TEMP:  17;

CHILLICOTHE      N/A     11   0  61 NE7       30.66S WCI   0
6HR MIN TEMP:  11; 6HR MAX TEMP:  14;

KIRKSVILLE     CLOUDY     6  -2  69 N9        30.63R WCI  -8
6HR MIN TEMP:   6; 6HR MAX TEMP:  10;


$$
MOZ066>068-077>081-088>096-101>105-131300-
...SOUTHWEST MISSOURI...

CITY           SKY/WX    TMP DP  RH WIND       PRES   REMARKS
SPRINGFIELD    CLOUDY    22   3  44 NE10      30.51R WCI  11
6HR MIN TEMP:  22; 6HR MAX TEMP:  27;

JOPLIN         CLOUDY    24   6  46 NE9       30.54R WCI  14
6HR MIN TEMP:  24; 6HR MAX TEMP:  29;


$$
MOZ032>034-039>042-045>050-055>058-069>072-131300-
...CENTRAL MISSOURI...

CITY           SKY/WX    TMP DP  RH WIND       PRES   REMARKS
COLUMBIA       CLOUDY    12   2  64 N7        30.62R WCI   1
6HR MIN TEMP:  12; 6HR MAX TEMP:  17;

JEFFERSON CITY CLOUDY    14   1  56 NE6       30.65R WCI   5
6HR MIN TEMP:  14; 6HR MAX TEMP:  20;

ROLLA          CLOUDY    14   2  58 NE8       30.55F WCI   3
6HR MIN TEMP:  14; 6HR MAX TEMP:  18;

SEDALIA        CLOUDY    16   2  54 NE9       30.62S WCI   4
6HR MIN TEMP:  16; 6HR MAX TEMP:  19;

WHITEMAN AFB   CLOUDY    15   2  56 NE10      30.61R WCI   3
WARRENSBURG    CLOUDY    18   5  57 NE9       30.63R WCI   6
OSAGE BEACH    CLOUDY    18   1  49 N6        30.58S WCI   9

$$
MOZ051-052-059>065-131300-
...EAST CENTRAL MISSOURI...

CITY           SKY/WX    TMP DP  RH WIND       PRES   REMARKS
ST LOUIS INTL  PTCLDY    12   1  61 N9        30.63S WCI   0
6HR MIN TEMP:  12; 6HR MAX TEMP:  18;

SPIRIT OF STL  PTCLDY    12   2  64 N7        30.64S WCI   1
6HR MIN TEMP:  12; 6HR MAX TEMP:  18;

ST CHARLES     PTCLDY    10   1  67 NW7       30.65S WCI  -1
6HR MIN TEMP:  10; 6HR MAX TEMP:  16;


$$
MOZ072>076-082>087-097>100-106>115-131300-
...SOUTH CENTRAL AND SOUTHEAST MISSOURI...

CITY           SKY/WX    TMP DP  RH WIND       PRES   REMARKS
CAPE GIRARDEAU CLOUDY    17   7  64 N15       30.61R WCI   2
6HR MIN TEMP:  17; 6HR MAX TEMP:  25;

FARMINGTON     CLOUDY    13   4  67 N8        30.58R WCI   2
6HR MIN TEMP:  13; 6HR MAX TEMP:  20;

POPLAR BLUFF   CLOUDY    21   4  47 N14       30.60R WCI   8
6HR MIN TEMP:  21; 6HR MAX TEMP:  28;

WEST PLAINS    CLOUDY    22   1  40 N9        30.52S WCI  12
6HR MIN TEMP:  22; 6HR MAX TEMP:  26;


$$



USA.gov is the U.S. government's official web portal to all federal, state and local government web resources and services.